Regional Weather Roundup
Issued by NWS

Home | Current Version | Previous Version | Text Only | Print | Product List | Glossary On
Versions: 1 2 3 4 5 6 7 8 9 10 11 12 13 14 15 16 17 18 19 20 21 22 23 24 25 26 27 28 29 30 31 32 33 34 35 36 37 38 39 40 41 42 43 44 45 46 47 48 49 50
000
ASUS46 KPQR 292310
RWROR

OREGON REGIONAL WEATHER ROUNDUP
NATIONAL WEATHER SERVICE PORTLAND OR
400 PM PDT FRI APR 29 2016

NOTE: "FAIR" INDICATES FEW OR NO CLOUDS BELOW 12,000 FEET WITH
NO SIGNIFICANT WEATHER AND/OR OBSTRUCTIONS TO VISIBILITY.

ORZ001>013-300000-
NORTHWEST OREGON


CITY           SKY/WX    TMP DP  RH WIND       PRES   REMARKS
ASTORIA        MOSUNNY   58  47  66 NW14G20   30.18R
NEWPORT        CLOUDY    55  52  88 W8        30.24S
PORTLAND       LGT RAIN  57  48  72 N5        30.15S
VANCOUVER WA   LGT RAIN  56  46  69 NW3       30.15S
SCAPPOOSE      LGT RAIN  56  49  77 VRB3      30.14S
HILLSBORO      PTSUNNY   60  47  61 W9        30.13F
AURORA         PTSUNNY   57  49  74 S5        30.16F
MCMINNVILLE    CLOUDY    60  48  64 NE6       30.15F
SALEM          PTSUNNY   57  46  66 W3        30.15S
CORVALLIS        N/A     54  48  82 E5        30.17S
EUGENE         PTSUNNY   53  47  79 E13       30.17R
$$

ORZ021-028-300000-
SOUTHWEST OREGON


CITY           SKY/WX    TMP DP  RH WIND       PRES   REMARKS
NORTH BEND     PTSUNNY   57  50  77 N8        30.22F
BROOKINGS      SUNNY     58  48  69 NW16G24   30.15S
ROSEBURG       MOSUNNY   62  44  51 N8G18     30.15F
SEXTON SUMMIT  LGT RAIN  44  41  89 VRB5      30.12S
MEDFORD        PTSUNNY   62  40  44 N16G22    30.11S
$$

ORZ014>016-041-300000-
COLUMBIA GORGE


CITY           SKY/WX    TMP DP  RH WIND       PRES   REMARKS
TROUTDALE      PTSUNNY   59  47  64 CALM      30.14F
THE DALLES     CLOUDY    65  36  34 W23G35    30.03S
$$

ORZ029>031-041-044-049-050-061>064-502-503-505>511-300000-
EASTERN OREGON


CITY           SKY/WX    TMP DP  RH WIND       PRES   REMARKS
REDMOND        LGT RAIN  49  39  68 N18G24    30.05S
BEND           PTSUNNY   48  39  71 N9G17     30.05R
PRINEVILLE     CLOUDY    50  34  53 NW16      30.05S
KLAMATH FALLS  MOSUNNY   53  31  42 NW22G31   30.02R
LAKEVIEW       CLOUDY    43  36  75 NE14G25   30.01R
HERMISTON      CLOUDY    61  44  53 W13       29.98S
PENDLETON      LGT RAIN  54  41  61 W17       29.99R
JOHN DAY       LGT RAIN  46  39  75 W14       30.00S
MEACHAM        LGT RAIN  44  40  85 VRB3      29.99S
LA GRANDE      CLOUDY    52  32  46 NW18      29.97S
BAKER CITY     CLOUDY    51  35  54 NW17      29.95R
BURNS          CLOUDY    50  33  52 NW20      29.96S
ROME             N/A     46  39  76 SW5       29.93R
ONTARIO        CLOUDY    62  38  40 N14G24    29.91R
$$



USA.gov is the U.S. government's official web portal to all federal, state and local government web resources and services.